Santa Rosa, CA

3:56 AM PST on December 18, 2017 (GMT -0800)
Sonoma County

Weather History for KSTS - October, 2013

Change the Weather History Date:

Friday, October 4, 2013

  Actual Average Record
Temperature  
Mean Temperature 68 °F 63 °F  
Max Temperature 85 °F 80 °F 97 °F (2014)
Min Temperature 51 °F 47 °F 39 °F (2017)
Degree Days  
Heating Degree Days 0    
Month to date heating degree days 5  
Since 1 July heating degree days 72  
Cooling Degree Days 3    
Month to date cooling degree days 4  
Year to date cooling degree days 415  
Growing Degree Days 18 (Base 50)    
Moisture  
Dew Point 21 °F    
Average Humidity 27    
Maximum Humidity 45    
Minimum Humidity 8    
Precipitation  
Precipitation 0.00 in 0.02 in 0.39 in (2011)
Month to date precipitation 0.00 0.09  
Year to date precipitation 7.04 22.62  
Since 1 July precipitation 0.52  
Sea Level Pressure  
Sea Level Pressure 30.02 in    
Wind  
Wind Speed 12 mph (NNE)    
Max Wind Speed 30 mph    
Max Gust Speed 39 mph    
Visibility 10 miles    
Events      
T = Trace of Precipitation, MM = Missing Value Source: NWS Daily Summary

Daily Weather History Graph

Daily Weather History Graph

Search for Another Location

Airport or City:

Trip Planner

Search our weather history database for the weather conditions in past years. The results will help you decide how hot, cold, wet, or windy it might be!

Date:

Astronomy

Oct. 04, 2013 Rise Set
Actual Time 7:10 AM PDT 6:48 PM PDT
Civil Twilight 6:43 AM PDT 7:15 PM PDT
Nautical Twilight 6:12 AM PDT 7:45 PM PDT
Astronomical Twilight 5:42 AM PDT 8:16 PM PDT
Moon 6:51 AM PDT (10/4) 6:35 PM PDT (10/4)
Length of Visible Light 12h 31m
Length of Day
11h 38m
Waning Crescent, 0% of the Moon is Illuminated
Oct 4
Waning Crescent
Oct 4
New
Oct 11
First Quarter
Oct 18
Full
Oct 26
Last Quarter

Hourly Weather History & Observations

Time (PDT) Temp. Dew Point Humidity Pressure Visibility Wind Dir Wind Speed Gust Speed Precip Events Conditions
12:53 AM 68.0 °F 24.1 °F 19% 30.00 in 10.0 mi NNE 19.6 mph - N/A   Clear
1:53 AM 66.9 °F 21.9 °F 18% 30.01 in 10.0 mi Variable 5.8 mph - N/A   Clear
2:53 AM 68.0 °F 21.0 °F 17% 30.00 in 10.0 mi North 17.3 mph 27.6 mph N/A   Clear
3:53 AM 66.0 °F 21.9 °F 19% 30.00 in 10.0 mi Calm Calm - N/A   Clear
4:53 AM 60.1 °F 21.9 °F 23% 29.99 in 10.0 mi Calm Calm - N/A   Clear
5:53 AM 64.9 °F 19.9 °F 18% 30.00 in 10.0 mi NNE 11.5 mph - N/A   Clear
6:53 AM 66.0 °F 19.9 °F 17% 30.00 in 10.0 mi NNE 19.6 mph 27.6 mph N/A   Clear
7:53 AM 68.0 °F 19.0 °F 15% 30.00 in 10.0 mi NE 29.9 mph 39.1 mph N/A   Clear
8:53 AM 70.0 °F 19.9 °F 15% 30.03 in 10.0 mi NE 25.3 mph 36.8 mph N/A   Clear
9:53 AM 73.0 °F 19.9 °F 14% 30.04 in 10.0 mi NNE 23.0 mph 35.7 mph N/A   Clear
10:53 AM 75.9 °F 19.9 °F 12% 30.06 in 10.0 mi NNE 13.8 mph 25.3 mph N/A   Clear
11:53 AM 79.0 °F 19.0 °F 11% 30.06 in 10.0 mi NNE 19.6 mph - N/A   Clear
12:53 PM 82.0 °F 18.0 °F 9% 30.05 in 10.0 mi NE 16.1 mph 26.5 mph N/A   Clear
1:07 PM 82.4 °F 17.6 °F 9% 30.07 in 10.0 mi NNE 12.7 mph 19.6 mph N/A   Clear
1:53 PM 82.0 °F 16.0 °F 8% 30.03 in 10.0 mi East 18.4 mph 26.5 mph N/A   Clear
2:53 PM 82.9 °F 16.0 °F 8% 30.01 in 10.0 mi ENE 17.3 mph - N/A   Clear
3:53 PM 84.0 °F 16.0 °F 8% 30.01 in 10.0 mi ENE 12.7 mph - N/A   Clear
4:53 PM 84.0 °F 16.0 °F 8% 30.01 in 10.0 mi ENE 11.5 mph 18.4 mph N/A   Clear
5:53 PM 82.0 °F 17.1 °F 9% 30.01 in 10.0 mi NNE 6.9 mph - N/A   Clear
6:53 PM 73.0 °F 19.9 °F 14% 30.01 in 10.0 mi North 5.8 mph - N/A   Clear
7:53 PM 66.9 °F 23.0 °F 19% 30.03 in 10.0 mi North 5.8 mph - N/A   Clear
8:53 PM 66.0 °F 23.0 °F 20% 30.04 in 10.0 mi West 4.6 mph - N/A   Clear
9:53 PM 64.9 °F 21.9 °F 19% 30.04 in 10.0 mi North 6.9 mph - N/A   Clear
10:53 PM 53.1 °F 32.0 °F 45% 30.06 in 10.0 mi Calm Calm - N/A   Clear
11:53 PM 53.1 °F 30.9 °F 43% 30.06 in 10.0 mi WNW 4.6 mph - N/A   Clear